Tracking 31027 objects as of 19-Jul-2025
HD Live streaming from Space Station
objects crossing your sky now

SL-24 R/B

Track SL-24 R/B now!
10-day predictions


NORAD ID: 40047
Int'l Code: 2014-033AP
Perigee: 614.6 km
Apogee: 1,457.3 km
Inclination: 97.9 °
Period: 105.7 minutes
Semi major axis: 7406 km
RCS: Unknown
Launch date: June 19, 2014
Source: Commonwealth of Independent States (former USSR) (CIS)
Launch site: Orenburg, Russia (OREN)

Note: This is a ROCKET BODY
Your satellite tracking list
STARLINK-31009
Track 1 satellite(s)




NASA's NSSDC Master Catalog

Two Line Element Set (TLE):
1 40047U 14033AP  25199.51228261  .00000036  00000-0  29163-4 0  9993
2 40047  97.9031 114.9479 0568853 107.9616 258.4365 13.61883424550616
Source of the keplerian elements: AFSPC